SCP
0 0 0 0 0 0 0 0 0 0 0 -0 -0 -0 -0 -0 0 0 0 0 0 0 0 0 0 0 0 0 0 0 0 0 0 0 0 0 0 0 0 0 0 0 -0 -0 -0 -0 -0 0 0 0 0 0 0 0
0 0 0 0 0 0 0 0 0 0 -0 0 0 -0 -0 -0 0 0 0 0 0 0 -0 0 0 0 0 0 0 0 0 0 0 0 0 0 0 0 -0 0 0 0 -0 0 0 0 -0 0 0 0 0 0 0 0
0 0 0 0 0 0 0 0 0 0 0 -0 0 -0 -0 0 0 0 0 0 0 0 0 0 0 0 0 0 0 0 0 0 0 0 0 0 0 0 0 0 -0 0 -0 -0 0 -0 0 0 0 0 0 0 0 0
0 0 0 0 0 0 0 0 0 0 0 0 -0 0 0 0 0 0 0 0 0 0 0 0 0 0 0 0 0 0 0 0 0 0 0 0 0 0 0 0 0 -0 -0 -0 0 0 0 0 0 0 0 0 0 0
0 -0 0 0 0 0 0 0 0 0 0 0 0 0 0 0 0 0 0 0 0 0 0 0 0 0 0 0 0 0 0 0 0 0 0 0 0 0 0 0 0 -0 -0 0 0 0 0 0 0 0 0 0 0 0
0 -0 0 0 0 0 0 0 0 0 0 0 0 0 0 0 0 0 0 0 0 0 0 0 0 0 0 0 0 0 0 0 0 0 0 0 0 0 0 0 -0 -0 -0 -0 -0 0 0 0 0 0 0 0 0 0
-0 0 0 0 0 0 0 0 0 0 0 0 0 0 0 0 0 0 0 0 0 0 0 0 0 0 0 0 0 0 0 0 0 0 0 0 0 0 0 0 -0 0 -0 -0 -0 0 0 0 0 0 0 0 0 0
-0 0 0 0 0 0 0 0 0 0 0 0 0 0 0 0 0 0 0 0 0 0 0 0 0 0 0 0 0 0 0 0 0 0 0 0 0 0 0 -0 -0 -0 -0 -0 -0 -0 0 0 0 0 0 0 0 0
-0 -0 -0 -0 0 0 0 0 0 0 0 0 0 0 0 0 0 0 0 0 0 0 0 0 0 0 0 0 0 0 0 0 0 0 0 0 0 0 0 0 -0 0 -0 -0 0 -0 0 0 0 0 0 0 0 0
0 -0 -0 -0 -0 0 0 0 0 0 0 0 0 0 0 0 0 0 0 0 0 0 0 0 0 0 0 0 0 0 0 0 0 0 0 0 0 0 0 -0 -0 -0 -0 -0 -0 -0 -0 0 0 0 0 0 0 0
-0 -0 -0 -0 -0 0 0 0 0 0 0 0 0 0 0 0 0 0 0 0 0 0 0 0 0 0 0 0 0 0 0 0 0 0 0 0 0 0 0 0 -0 -0 -0 0 0 0 0 0 0 0 0 0 0 0
-0 -0 -0 -0 -0 -0 0 0 0 0 0 0 0 0 0 0 0 0 0 0 0 0 0 0 0 0 0 0 0 0 0 0 0 0 0 0 0 0 0 0 -0 -0 -0 -0 -0 0 0 0 -0 -0 0 0 0 0
-0 -0 -0 -0 -0 0 0 0 0 0 0 0 0 0 0 0 0 0 0 0 0 0 0 0 0 0 0 0 0 0 0 0 0 0 0 0 0 0 0 0 0 -0 -0 -0 -0 -0 -0 0 0 0 -0 0 0 0
-0 -0 -0 -0 0 0 0 0 0 0 0 0 0 0 0 0 0 0 0 0 0 0 0 0 0 0 0 0 0 0 0 0 0 0 0 0 0 0 0 0 0 0 -0 -0 -0 -0 -0 -0 -0 -0 -0 -0 0 0
-0 -0 -0 -0 -0 -0 0 0 0 0 0 0 0 0 0 0 0 0 0 0 0 0 0 0 0 0 0 0 0 0 0 0 0 0 0 0 0 0 0 0 0 0 0 0 0 -0 -0 -0 -0 0 -0 -0 -0 0
-0 -0 0 -0 -0 0 0 -0 0 0 0 0 0 0 0 0 0 0 0 0 0 0 0 0 0 0 0 0 0 0 0 0 0 0 0 0 0 0 0 0 0 0 0 0 0 0 0 0 -0 -0 -0 0 -0 -0
-0 0 -0 -0 0 0 0 0 0 0 0 0 0 0 0 0 0 0 0 0 0 0 0 0 0 0 0 0 0 0 0 0 0 0 0 0 0 0 0 0 0 0 0 0 0 0 0 -0 -0 0 0 -0 -0 -0
0 0 0 -0 -0 0 0 0 0 0 0 0 0 0 0 0 0 0 0 0 0 0 0 0 0 0 0 0 0 0 -0 0 0 0 0 0 0 0 0 0 0 0 0 0 0 0 0 0 0 0 -0 -0 -0 -0
-0 -0 -0 -0 0 0 0 0 0 0 0 0 0 0 0 0 0 0 0 0 0 0 0 0 0 0 0 0 0 0 0 0 0 0 0 0 0 0 0 0 0 0 0 0 0 0 0 0 0 0 0 -0 -0 0
-0 -0 -0 -0 -0 0 0 0 0 0 0 0 0 0 0 0 0 0 0 0 0 0 0 0 0 0 0 0 0 0 0 0 0 0 0 0 0 0 0 0 0 0 0 0 0 0 0 0 0 0 0 0 0 0
0 -0 -0 0 0 0 -0 -0 0 0 0 0 0 0 0 0 0 0 0 0 0 0 0 0 0 0 0 0 0 0 0 0 0 0 0 0 0 0 0 0 0 0 0 0 0 0 0 0 0 0 0 0 0 0
0 0 0 0 0 0 -0 -0 -0 0 0 0 0 0 0 0 0 0 0 0 0 0 0 0 0 0 0 0 0 0 0 0 0 0 0 0 0 0 0 0 0 0 0 0 0 0 0 0 0 0 0 0 -0 0
-0 0 0 -0 0 0 -0 -0 0 0 0 0 0 0 0 0 0 0 0 0 0 0 0 0 0 0 0 0 0 0 0 0 0 0 0 0 0 0 0 0 0 0 0 0 0 0 0 0 0 0 0 0 0 0
0 0 -0 0 0 0 -0 0 0 0 0 0 0 0 0 0 0 0 0 0 0 0 0 0 0 0 0 0 0 0 0 0 0 0 0 0 0 0 0 0 0 0 0 0 0 0 0 0 0 0 0 0 0 0
-0 -0 -0 -0 -0 0 0 0 0 0 0 0 0 0 0 0 0 0 0 0 0 0 0 0 0 0 0 0 0 0 0 0 0 0 0 0 0 0 0 0 0 0 0 0 0 0 0 0 0 0 0 0 0 0
0 0 0 0 0 -0 0 0 0 0 0 0 0 0 0 0 0 0 0 0 0 0 0 0 0 0 0 0 0 0 0 0 0 0 0 0 0 0 0 0 0 0 -0 0 0 0 0 0 0 0 0 0 0 0
0 0 0 -0 -0 -0 -0 0 0 0 0 0 0 0 0 0 0 0 0 0 0 0 0 0 0 0 0 0 0 0 0 0 0 0 0 0 0 0 0 0 0 0 0 0 0 0 -0 -0 -0 -0 0 0 -0 0
-0 -0 -0 0 -0 0 0 0 0 0 0 0 0 0 0 0 0 0 0 0 0 0 0 0 0 0 0 0 0 0 0 0 0 0 0 0 0 0 0 0 0 0 0 -0 -0 -0 0 -0 0 -0 -0 -0 0 0
0 -0 -0 -0 -0 0 0 0 0 0 0 0 0 0 0 0 0 0 0 0 0 0 0 0 0 0 0 0 0 0 0 0 0 0 0 0 0 0 0 0 0 0 0 0 -0 0 -0 0 0 -0 -0 -0 -0 -0
-0 0 -0 -0 -0 0 0 0 0 0 0 0 0 0 0 0 0 0 0 0 0 0 0 0 0 0 0 0 0 0 0 0 0 0 0 0 0 0 0 0 -0 0 0 0 0 -0 0 0 0 0 0 0 -0 -0
-0 0 -0 0 0 0 0 0 0 0 0 0 0 0 0 0 0 0 0 0 0 0 0 0 0 0 0 0 0 0 0 0 0 0 0 0 0 0 0 0 0 0 0 0 0 0 0 0 0 0 0 0 -0 -0
0 0 0 0 0 0 0 0 0 0 0 0 0 0 0 0 0 0 0 0 0 0 0 0 0 0 0 0 0 0 0 0 0 0 0 0 0 0 0 0 0 0 0 0 0 0 0 0 0 0 0 0 0 0
0 0 0 0 0 0 0 0 0 0 0 0 0 0 0 0 0 0 0 0 0 0 0 0 0 0 0 0 0 0 0 0 0 0 0 -0 -0 -0 0 0 0 0 0 0 0 0 0 0 0 0 0 0 0 0
Wind_Speed_500mb
27 32 36 37 33 31 37 42 37 29 24 21 20 19 15 15 12 13 6 8 7 3 10 6 6 10 12 10 5 18 15 4 5 5 4 5 5 3 6 3 6 14 12 13 18 18 30 16 34 12 9 25 17 7
27 31 34 34 30 28 34 37 32 23 20 17 13 16 10 16 12 10 2 3 3 3 5 8 8 11 14 12 15 11 11 9 5 5 4 6 4 6 13 4 2 5 8 5 11 8 9 34 51 32 19 13 9 20
25 29 32 32 28 25 30 34 27 22 17 16 9 11 12 14 9 9 5 2 4 6 8 6 8 4 7 9 10 9 6 14 5 10 7 4 5 6 8 7 6 4 17 8 6 11 23 25 29 34 11 10 15 22
24 28 30 30 26 21 26 31 23 17 17 13 10 4 7 6 6 8 9 5 3 7 9 9 7 6 9 11 10 12 24 15 12 5 8 4 6 14 6 6 3 6 15 13 10 11 32 16 35 31 24 21 22 23
22 26 28 28 25 19 19 26 23 16 15 13 9 6 3 3 4 9 14 8 7 3 11 8 2 6 4 7 15 18 13 12 6 2 4 5 9 7 8 8 3 24 11 8 5 33 12 27 36 32 20 28 25 27
21 25 26 26 25 19 15 19 23 17 14 12 10 7 6 7 10 6 5 7 13 7 8 6 7 11 11 11 16 13 11 7 10 6 4 7 8 12 7 6 33 47 41 46 26 45 32 44 38 40 37 34 23 30
20 23 25 26 25 23 18 17 20 19 17 15 14 11 11 11 10 6 7 9 19 10 7 10 5 6 11 14 13 8 10 8 8 5 14 7 10 9 5 9 45 50 45 50 54 50 43 51 49 56 41 31 26 29
19 22 24 24 25 21 16 15 18 18 17 16 16 14 14 16 13 7 12 20 13 5 7 6 3 7 1 3 6 5 10 4 9 7 10 19 7 12 6 37 41 48 44 51 47 45 43 45 58 59 55 45 47 49
18 20 22 21 19 18 19 19 19 17 19 19 16 13 14 6 5 12 23 12 6 9 5 4 5 9 4 1 3 4 6 3 1 4 7 9 7 6 17 31 33 40 47 47 47 46 49 51 51 55 56 60 55 47
17 20 20 19 17 15 19 22 18 18 22 18 9 1 7 7 16 10 4 3 4 5 6 7 4 5 6 6 2 1 4 2 3 4 3 4 5 8 17 23 24 28 34 41 47 56 60 62 59 56 50 49 48 45
17 21 20 20 19 19 18 19 22 21 20 11 3 5 13 16 1 2 4 8 6 7 10 8 11 12 5 5 2 4 3 2 3 3 4 2 5 12 16 17 16 19 23 30 35 38 40 43 51 54 53 50 46 40
19 23 23 21 21 22 20 15 22 20 16 13 14 17 8 3 6 8 2 4 6 6 4 13 14 9 4 3 3 5 3 5 3 2 2 5 5 12 14 16 17 9 13 17 22 28 32 38 41 40 45 49 46 43
20 24 25 25 23 21 16 11 22 21 22 13 1 5 7 6 4 1 3 7 8 14 12 16 12 2 4 6 5 6 8 2 4 3 3 7 8 9 13 14 15 13 7 8 14 20 25 28 31 36 39 42 46 43
21 22 25 24 15 9 6 19 23 19 9 4 6 7 6 3 6 7 14 14 19 16 21 19 4 9 10 9 5 7 5 6 4 2 5 2 6 4 9 13 16 19 13 10 10 14 20 25 30 33 35 35 37 47
20 19 17 8 12 15 21 23 21 13 5 7 7 5 7 10 19 13 14 14 12 12 16 12 11 9 8 7 5 1 5 2 4 5 8 18 12 5 4 11 16 19 19 14 13 15 17 23 28 29 29 30 29 32
17 17 6 17 22 20 16 15 9 8 6 7 9 11 13 18 24 19 14 21 7 11 7 1 7 4 8 4 7 8 8 6 6 8 16 12 7 5 7 9 9 13 16 15 14 14 16 18 22 23 23 27 28 25
18 10 26 25 17 12 12 6 5 7 8 7 11 13 21 24 24 26 24 25 12 13 6 7 9 4 10 8 7 2 5 11 17 14 10 4 4 6 10 10 7 4 9 9 11 12 15 13 17 21 21 21 25 25
25 30 20 12 7 7 9 9 6 7 11 16 16 19 15 20 23 19 16 17 12 10 6 6 11 7 5 2 5 7 19 11 8 6 2 2 7 10 9 11 7 7 3 4 8 9 13 9 12 17 18 21 22 23
30 15 10 5 4 2 3 5 8 9 11 14 17 16 16 14 10 13 13 9 5 2 6 8 5 2 5 13 17 14 15 4 3 1 2 4 7 9 8 10 8 9 7 3 4 11 10 7 12 16 19 21 23 23
11 5 0 3 7 4 4 6 8 9 10 8 13 11 13 9 7 7 10 13 6 0 5 4 8 13 14 13 13 17 13 5 6 14 2 6 11 11 9 10 8 4 11 6 4 6 2 4 8 12 13 15 20 18
4 3 7 2 4 10 5 5 8 10 12 9 10 14 9 5 6 8 11 10 5 9 7 1 7 9 12 15 22 18 11 8 5 12 12 14 12 10 10 8 6 9 11 11 2 1 3 7 8 8 10 13 14 12
5 9 5 4 4 5 7 9 9 9 8 11 11 10 6 5 6 9 4 9 9 9 6 9 11 13 14 17 16 7 6 7 3 2 4 7 5 10 10 11 8 7 6 3 5 1 5 4 5 6 8 10 12 14
8 3 4 5 5 6 6 7 7 5 7 5 9 4 2 3 6 4 2 8 8 2 2 7 11 10 11 13 9 5 5 5 3 6 5 7 6 5 3 6 7 7 6 3 2 3 4 4 3 2 5 6 7 10
8 5 5 5 9 6 4 6 6 6 6 6 5 5 3 6 6 3 4 8 11 6 9 12 12 16 15 11 16 13 4 5 7 10 4 4 11 4 1 4 7 8 7 9 4 2 4 3 6 7 5 5 7 9
4 6 6 8 7 7 7 5 5 5 4 4 4 1 2 2 2 3 4 8 11 10 11 12 11 11 18 24 23 15 18 4 6 17 2 7 7 7 6 5 8 5 4 5 3 4 5 6 6 7 8 6 8 9
2 9 11 7 6 7 3 4 3 4 5 4 1 2 2 3 3 3 4 9 12 12 12 13 16 18 19 15 21 22 16 8 11 8 5 10 13 5 4 3 11 9 8 5 4 7 10 11 8 10 14 10 13 12
4 9 9 10 5 4 6 6 7 8 5 4 3 4 3 4 4 5 4 7 10 12 10 11 12 13 15 19 20 17 13 9 8 14 19 10 13 8 7 8 12 10 9 8 5 8 9 10 10 10 12 11 11 13
10 6 11 11 10 12 7 5 5 6 5 5 4 6 3 3 5 6 5 4 6 9 12 14 14 14 17 19 17 17 19 23 24 22 21 16 16 18 14 13 13 15 12 12 11 8 10 12 11 9 10 9 9 10
9 9 11 12 12 8 9 8 6 6 6 9 5 4 7 7 13 12 12 9 10 10 9 8 10 13 16 19 18 15 10 3 4 2 7 15 15 13 9 7 8 13 12 13 14 17 17 16 14 12 14 13 12 9
8 16 9 7 7 8 7 11 5 6 7 8 7 10 11 13 12 16 11 13 12 9 8 7 7 9 11 12 14 15 13 10 7 8 8 16 15 13 13 16 14 14 15 15 16 16 16 14 13 11 11 10 10 9
5 10 9 12 10 7 7 8 5 4 6 7 7 8 12 14 17 16 14 13 14 14 11 10 9 10 11 11 11 8 13 17 17 15 16 17 17 15 14 13 12 12 14 14 12 10 7 7 8 7 7 8 9 9
10 12 10 7 6 4 4 4 4 4 1 5 6 10 13 14 14 19 18 21 16 13 13 10 9 11 12 13 16 19 22 18 19 22 22 20 18 16 14 13 12 11 10 9 10 9 8 7 7 7 7 8 8 9
9 12 14 11 7 5 4 3 3 4 5 4 11 16 17 14 9 14 23 25 16 16 17 17 18 16 14 16 18 20 20 19 19 19 19 21 21 20 14 12 11 10 9 8 8 8 8 7 7 7 6 7 8 10
Wind_Direction_500mb
338 343 344 351 351 352 355 355 1 7 8 30 51 63 93 116 113 113 113 95 113 315 337 336 305 306 299 268 289 311 312 59 305 288 301 342 287 305 274 62 213 186 185 212 233 244 255 18 305 227 35 91 101 141
334 340 344 349 351 353 357 357 1 10 360 16 59 89 106 114 116 92 322 258 269 217 322 330 308 293 279 298 315 309 314 354 320 307 337 299 305 315 315 39 46 200 219 282 220 228 339 296 282 328 2 74 67 78
330 337 342 348 349 355 359 2 4 10 6 14 26 119 107 83 70 71 40 336 57 295 267 11 33 327 5 315 288 297 3 353 25 324 294 291 319 323 334 23 311 218 223 242 268 214 279 272 308 316 357 24 46 65
327 335 341 347 346 354 2 3 1 15 10 7 16 46 126 96 37 12 22 351 328 289 289 105 62 65 56 37 13 293 284 296 278 291 330 332 317 359 322 294 286 274 290 282 258 270 322 232 324 353 360 34 47 53
325 333 341 345 345 346 356 360 5 360 358 358 356 17 10 356 336 295 286 293 348 305 323 329 197 247 303 350 348 339 322 315 322 267 10 7 312 316 295 297 354 359 352 341 304 318 321 294 340 352 14 31 30 40
322 330 339 345 344 335 332 346 359 350 334 332 324 331 348 337 331 349 297 298 330 319 291 286 249 248 265 323 335 330 344 357 34 28 36 0 13 333 338 338 360 18 18 11 350 350 360 3 7 15 25 25 39 52
321 330 339 344 340 335 331 328 345 341 334 320 301 300 295 300 319 261 297 275 317 314 266 277 245 248 280 286 262 292 330 13 9 22 13 18 356 338 346 352 3 14 16 13 11 13 11 12 10 26 34 43 48 48
320 331 341 343 350 351 337 330 337 336 331 321 303 292 295 292 296 302 278 299 303 257 248 275 5 184 279 300 297 304 280 268 28 20 356 19 359 17 16 359 7 12 12 15 16 15 19 20 29 27 35 43 48 48
319 334 339 346 355 1 357 349 341 333 331 324 309 295 293 243 237 254 301 290 264 199 271 246 292 358 189 231 329 298 292 311 285 49 16 354 355 25 339 350 8 16 19 16 19 21 27 27 26 25 29 30 37 34
318 333 333 336 339 343 353 356 340 333 335 325 317 14 235 240 297 299 299 292 239 238 231 251 265 315 239 191 204 244 339 9 328 41 183 55 281 29 5 359 4 20 21 21 25 24 25 24 25 29 24 27 29 28
317 324 324 329 324 314 309 340 338 329 332 338 271 257 260 302 312 227 260 230 172 233 206 240 219 308 284 280 150 186 155 259 326 307 330 336 318 9 7 12 6 14 21 28 31 33 32 30 27 29 30 25 24 23
315 316 319 322 314 306 305 305 328 324 306 282 271 279 283 252 233 258 270 220 231 289 307 300 346 283 257 239 254 199 181 209 235 139 317 323 295 16 2 3 4 1 14 20 30 31 32 34 34 30 27 28 28 30
311 314 320 318 307 298 298 300 322 322 309 311 273 237 228 200 320 244 273 289 304 333 328 306 312 201 194 227 228 236 234 42 136 190 215 238 7 0 3 358 359 351 329 0 13 24 28 31 33 33 33 30 28 28
310 318 327 326 311 290 296 311 319 315 302 254 244 296 249 219 254 318 315 322 320 297 312 314 239 205 196 216 204 252 50 225 271 28 258 32 31 324 352 355 350 355 349 329 348 4 15 19 20 22 26 30 30 31
312 321 324 350 339 312 303 302 305 283 255 261 249 253 236 314 294 290 298 293 293 287 308 278 252 233 195 232 217 135 206 1 220 266 350 21 348 261 316 343 350 353 355 350 351 352 3 12 14 18 21 23 30 33
323 326 296 316 318 310 302 310 277 230 252 243 239 258 275 278 325 322 283 287 313 306 309 30 280 250 257 267 195 55 27 264 347 336 346 348 29 46 336 324 321 352 353 358 360 1 4 17 19 19 22 23 25 26
339 315 307 309 302 291 296 276 239 234 249 236 241 275 293 297 307 329 327 326 308 293 10 61 278 307 25 357 52 275 255 318 324 339 346 31 20 7 355 336 296 313 356 2 6 14 16 17 22 26 27 23 25 27
330 320 314 317 262 279 283 202 232 247 250 253 269 304 315 302 309 330 340 333 341 334 342 65 28 37 31 20 233 243 295 302 350 4 15 351 324 322 324 332 308 229 290 10 17 2 1 9 14 26 27 21 23 25
321 311 308 283 234 267 237 232 216 266 256 287 289 306 312 321 326 344 356 354 10 55 102 82 69 160 219 233 266 288 296 338 344 63 338 329 330 321 315 327 298 226 221 205 344 9 20 30 18 10 11 13 18 25
311 308 80 268 250 217 249 222 225 265 276 334 302 322 327 336 344 17 30 3 352 294 88 106 212 214 260 317 279 297 294 270 344 289 274 29 345 333 319 311 303 223 208 198 210 342 82 111 45 22 25 24 16 25
327 333 328 250 239 220 258 252 245 264 297 286 314 323 330 353 29 30 16 6 41 12 31 306 302 319 311 309 311 293 259 216 309 315 351 347 349 347 344 324 278 240 226 199 126 83 57 60 38 45 39 29 31 39
314 303 286 244 223 241 257 239 262 281 268 295 297 317 325 358 16 16 337 21 38 18 23 12 8 349 347 349 339 319 221 213 287 255 10 8 37 55 17 31 75 116 149 150 266 293 129 75 48 43 52 56 57 52
318 272 233 219 231 233 246 250 256 245 268 301 301 280 88 23 11 342 84 31 23 1 352 343 357 342 344 346 2 11 206 253 230 184 156 111 30 167 344 20 6 348 354 22 307 211 162 191 162 93 61 64 58 51
304 216 222 228 218 252 233 231 233 256 269 279 301 330 31 6 343 320 56 23 18 343 324 342 353 353 1 356 1 357 328 210 177 153 249 307 164 135 20 55 57 34 19 329 302 209 148 124 123 135 95 68 54 35
261 208 215 233 224 235 228 221 226 241 279 318 290 284 57 314 304 45 23 26 7 6 355 350 320 353 351 1 8 358 350 275 222 314 173 184 177 134 98 302 324 54 24 13 51 168 169 159 155 173 112 60 42 34
240 201 197 216 189 232 227 266 232 283 296 265 222 73 262 293 279 45 55 12 349 356 352 351 349 350 8 11 355 353 353 321 307 342 91 125 129 68 263 127 100 53 25 12 13 82 91 78 83 121 130 96 72 60
259 208 210 225 250 249 254 252 269 257 248 234 181 199 238 297 13 75 66 18 355 352 12 25 31 38 23 8 360 359 6 17 69 107 121 88 81 68 80 100 96 71 49 57 97 102 109 119 132 108 87 94 73 68
248 247 229 185 216 233 265 257 237 228 224 190 198 216 245 25 67 75 40 38 68 77 83 84 76 58 40 35 41 50 75 97 99 100 102 90 73 91 90 95 81 76 70 98 92 98 99 103 95 88 91 92 62 55
235 221 210 229 230 230 234 237 250 220 208 202 235 180 142 110 129 142 139 133 116 97 90 78 64 50 43 43 53 65 68 38 321 221 109 106 94 76 71 61 105 96 81 69 108 105 91 88 86 85 76 77 80 62
229 199 226 230 229 235 229 214 256 230 217 227 177 120 124 138 156 152 144 137 131 123 106 87 70 44 41 46 52 54 48 47 68 75 93 110 103 100 97 114 96 93 92 96 106 100 89 79 77 79 78 72 65 56
207 196 234 244 258 273 246 233 241 228 211 205 200 211 163 155 163 155 160 156 144 133 117 98 80 59 49 44 39 50 65 64 66 96 116 120 124 113 108 113 112 104 108 100 107 107 95 75 88 89 74 60 41 38
208 219 237 248 250 267 194 223 230 210 247 266 219 184 163 164 172 192 182 170 153 150 145 122 111 94 76 70 74 97 109 102 92 89 95 115 125 121 116 115 116 115 116 103 99 100 100 89 87 79 64 44 34 25
237 243 247 264 218 202 185 180 207 128 125 337 267 230 211 200 182 194 182 170 168 166 149 139 126 114 103 102 107 109 107 109 118 124 129 135 136 125 115 119 121 120 119 118 111 99 97 90 84 74 49 32 14 0
Wind_Speed_850mb
27 32 36 37 33 31 37 42 37 29 24 21 20 19 15 15 12 13 6 8 7 3 10 6 6 10 12 10 5 18 15 4 5 5 4 5 5 3 6 3 6 14 12 13 18 18 30 16 34 12 9 25 17 7
27 31 34 34 30 28 34 37 32 23 20 17 13 16 10 16 12 10 2 3 3 3 5 8 8 11 14 12 15 11 11 9 5 5 4 6 4 6 13 4 2 5 8 5 11 8 9 34 51 32 19 13 9 20
25 29 32 32 28 25 30 34 27 22 17 16 9 11 12 14 9 9 5 2 4 6 8 6 8 4 7 9 10 9 6 14 5 10 7 4 5 6 8 7 6 4 17 8 6 11 23 25 29 34 11 10 15 22
24 28 30 30 26 21 26 31 23 17 17 13 10 4 7 6 6 8 9 5 3 7 9 9 7 6 9 11 10 12 24 15 12 5 8 4 6 14 6 6 3 6 15 13 10 11 32 16 35 31 24 21 22 23
22 26 28 28 25 19 19 26 23 16 15 13 9 6 3 3 4 9 14 8 7 3 11 8 2 6 4 7 15 18 13 12 6 2 4 5 9 7 8 8 3 24 11 8 5 33 12 27 36 32 20 28 25 27
21 25 26 26 25 19 15 19 23 17 14 12 10 7 6 7 10 6 5 7 13 7 8 6 7 11 11 11 16 13 11 7 10 6 4 7 8 12 7 6 33 47 41 46 26 45 32 44 38 40 37 34 23 30
20 23 25 26 25 23 18 17 20 19 17 15 14 11 11 11 10 6 7 9 19 10 7 10 5 6 11 14 13 8 10 8 8 5 14 7 10 9 5 9 45 50 45 50 54 50 43 51 49 56 41 31 26 29
19 22 24 24 25 21 16 15 18 18 17 16 16 14 14 16 13 7 12 20 13 5 7 6 3 7 1 3 6 5 10 4 9 7 10 19 7 12 6 37 41 48 44 51 47 45 43 45 58 59 55 45 47 49
18 20 22 21 19 18 19 19 19 17 19 19 16 13 14 6 5 12 23 12 6 9 5 4 5 9 4 1 3 4 6 3 1 4 7 9 7 6 17 31 33 40 47 47 47 46 49 51 51 55 56 60 55 47
17 20 20 19 17 15 19 22 18 18 22 18 9 1 7 7 16 10 4 3 4 5 6 7 4 5 6 6 2 1 4 2 3 4 3 4 5 8 17 23 24 28 34 41 47 56 60 62 59 56 50 49 48 45
17 21 20 20 19 19 18 19 22 21 20 11 3 5 13 16 1 2 4 8 6 7 10 8 11 12 5 5 2 4 3 2 3 3 4 2 5 12 16 17 16 19 23 30 35 38 40 43 51 54 53 50 46 40
19 23 23 21 21 22 20 15 22 20 16 13 14 17 8 3 6 8 2 4 6 6 4 13 14 9 4 3 3 5 3 5 3 2 2 5 5 12 14 16 17 9 13 17 22 28 32 38 41 40 45 49 46 43
20 24 25 25 23 21 16 11 22 21 22 13 1 5 7 6 4 1 3 7 8 14 12 16 12 2 4 6 5 6 8 2 4 3 3 7 8 9 13 14 15 13 7 8 14 20 25 28 31 36 39 42 46 43
21 22 25 24 15 9 6 19 23 19 9 4 6 7 6 3 6 7 14 14 19 16 21 19 4 9 10 9 5 7 5 6 4 2 5 2 6 4 9 13 16 19 13 10 10 14 20 25 30 33 35 35 37 47
20 19 17 8 12 15 21 23 21 13 5 7 7 5 7 10 19 13 14 14 12 12 16 12 11 9 8 7 5 1 5 2 4 5 8 18 12 5 4 11 16 19 19 14 13 15 17 23 28 29 29 30 29 32
17 17 6 17 22 20 16 15 9 8 6 7 9 11 13 18 24 19 14 21 7 11 7 1 7 4 8 4 7 8 8 6 6 8 16 12 7 5 7 9 9 13 16 15 14 14 16 18 22 23 23 27 28 25
18 10 26 25 17 12 12 6 5 7 8 7 11 13 21 24 24 26 24 25 12 13 6 7 9 4 10 8 7 2 5 11 17 14 10 4 4 6 10 10 7 4 9 9 11 12 15 13 17 21 21 21 25 25
25 30 20 12 7 7 9 9 6 7 11 16 16 19 15 20 23 19 16 17 12 10 6 6 11 7 5 2 5 7 19 11 8 6 2 2 7 10 9 11 7 7 3 4 8 9 13 9 12 17 18 21 22 23
30 15 10 5 4 2 3 5 8 9 11 14 17 16 16 14 10 13 13 9 5 2 6 8 5 2 5 13 17 14 15 4 3 1 2 4 7 9 8 10 8 9 7 3 4 11 10 7 12 16 19 21 23 23
11 5 0 3 7 4 4 6 8 9 10 8 13 11 13 9 7 7 10 13 6 0 5 4 8 13 14 13 13 17 13 5 6 14 2 6 11 11 9 10 8 4 11 6 4 6 2 4 8 12 13 15 20 18
4 3 7 2 4 10 5 5 8 10 12 9 10 14 9 5 6 8 11 10 5 9 7 1 7 9 12 15 22 18 11 8 5 12 12 14 12 10 10 8 6 9 11 11 2 1 3 7 8 8 10 13 14 12
5 9 5 4 4 5 7 9 9 9 8 11 11 10 6 5 6 9 4 9 9 9 6 9 11 13 14 17 16 7 6 7 3 2 4 7 5 10 10 11 8 7 6 3 5 1 5 4 5 6 8 10 12 14
8 3 4 5 5 6 6 7 7 5 7 5 9 4 2 3 6 4 2 8 8 2 2 7 11 10 11 13 9 5 5 5 3 6 5 7 6 5 3 6 7 7 6 3 2 3 4 4 3 2 5 6 7 10
8 5 5 5 9 6 4 6 6 6 6 6 5 5 3 6 6 3 4 8 11 6 9 12 12 16 15 11 16 13 4 5 7 10 4 4 11 4 1 4 7 8 7 9 4 2 4 3 6 7 5 5 7 9
4 6 6 8 7 7 7 5 5 5 4 4 4 1 2 2 2 3 4 8 11 10 11 12 11 11 18 24 23 15 18 4 6 17 2 7 7 7 6 5 8 5 4 5 3 4 5 6 6 7 8 6 8 9
2 9 11 7 6 7 3 4 3 4 5 4 1 2 2 3 3 3 4 9 12 12 12 13 16 18 19 15 21 22 16 8 11 8 5 10 13 5 4 3 11 9 8 5 4 7 10 11 8 10 14 10 13 12
4 9 9 10 5 4 6 6 7 8 5 4 3 4 3 4 4 5 4 7 10 12 10 11 12 13 15 19 20 17 13 9 8 14 19 10 13 8 7 8 12 10 9 8 5 8 9 10 10 10 12 11 11 13
10 6 11 11 10 12 7 5 5 6 5 5 4 6 3 3 5 6 5 4 6 9 12 14 14 14 17 19 17 17 19 23 24 22 21 16 16 18 14 13 13 15 12 12 11 8 10 12 11 9 10 9 9 10
9 9 11 12 12 8 9 8 6 6 6 9 5 4 7 7 13 12 12 9 10 10 9 8 10 13 16 19 18 15 10 3 4 2 7 15 15 13 9 7 8 13 12 13 14 17 17 16 14 12 14 13 12 9
8 16 9 7 7 8 7 11 5 6 7 8 7 10 11 13 12 16 11 13 12 9 8 7 7 9 11 12 14 15 13 10 7 8 8 16 15 13 13 16 14 14 15 15 16 16 16 14 13 11 11 10 10 9
5 10 9 12 10 7 7 8 5 4 6 7 7 8 12 14 17 16 14 13 14 14 11 10 9 10 11 11 11 8 13 17 17 15 16 17 17 15 14 13 12 12 14 14 12 10 7 7 8 7 7 8 9 9
10 12 10 7 6 4 4 4 4 4 1 5 6 10 13 14 14 19 18 21 16 13 13 10 9 11 12 13 16 19 22 18 19 22 22 20 18 16 14 13 12 11 10 9 10 9 8 7 7 7 7 8 8 9
9 12 14 11 7 5 4 3 3 4 5 4 11 16 17 14 9 14 23 25 16 16 17 17 18 16 14 16 18 20 20 19 19 19 19 21 21 20 14 12 11 10 9 8 8 8 8 7 7 7 6 7 8 10
Wind_Direction_850mb
338 343 344 351 351 352 355 355 1 7 8 30 51 63 93 116 113 113 113 95 113 315 337 336 305 306 299 268 289 311 312 59 305 288 301 342 287 305 274 62 213 186 185 212 233 244 255 18 305 227 35 91 101 141
334 340 344 349 351 353 357 357 1 10 360 16 59 89 106 114 116 92 322 258 269 217 322 330 308 293 279 298 315 309 314 354 320 307 337 299 305 315 315 39 46 200 219 282 220 228 339 296 282 328 2 74 67 78
330 337 342 348 349 355 359 2 4 10 6 14 26 119 107 83 70 71 40 336 57 295 267 11 33 327 5 315 288 297 3 353 25 324 294 291 319 323 334 23 311 218 223 242 268 214 279 272 308 316 357 24 46 65
327 335 341 347 346 354 2 3 1 15 10 7 16 46 126 96 37 12 22 351 328 289 289 105 62 65 56 37 13 293 284 296 278 291 330 332 317 359 322 294 286 274 290 282 258 270 322 232 324 353 360 34 47 53
325 333 341 345 345 346 356 360 5 360 358 358 356 17 10 356 336 295 286 293 348 305 323 329 197 247 303 350 348 339 322 315 322 267 10 7 312 316 295 297 354 359 352 341 304 318 321 294 340 352 14 31 30 40
322 330 339 345 344 335 332 346 359 350 334 332 324 331 348 337 331 349 297 298 330 319 291 286 249 248 265 323 335 330 344 357 34 28 36 0 13 333 338 338 360 18 18 11 350 350 360 3 7 15 25 25 39 52
321 330 339 344 340 335 331 328 345 341 334 320 301 300 295 300 319 261 297 275 317 314 266 277 245 248 280 286 262 292 330 13 9 22 13 18 356 338 346 352 3 14 16 13 11 13 11 12 10 26 34 43 48 48
320 331 341 343 350 351 337 330 337 336 331 321 303 292 295 292 296 302 278 299 303 257 248 275 5 184 279 300 297 304 280 268 28 20 356 19 359 17 16 359 7 12 12 15 16 15 19 20 29 27 35 43 48 48
319 334 339 346 355 1 357 349 341 333 331 324 309 295 293 243 237 254 301 290 264 199 271 246 292 358 189 231 329 298 292 311 285 49 16 354 355 25 339 350 8 16 19 16 19 21 27 27 26 25 29 30 37 34
318 333 333 336 339 343 353 356 340 333 335 325 317 14 235 240 297 299 299 292 239 238 231 251 265 315 239 191 204 244 339 9 328 41 183 55 281 29 5 359 4 20 21 21 25 24 25 24 25 29 24 27 29 28
317 324 324 329 324 314 309 340 338 329 332 338 271 257 260 302 312 227 260 230 172 233 206 240 219 308 284 280 150 186 155 259 326 307 330 336 318 9 7 12 6 14 21 28 31 33 32 30 27 29 30 25 24 23
315 316 319 322 314 306 305 305 328 324 306 282 271 279 283 252 233 258 270 220 231 289 307 300 346 283 257 239 254 199 181 209 235 139 317 323 295 16 2 3 4 1 14 20 30 31 32 34 34 30 27 28 28 30
311 314 320 318 307 298 298 300 322 322 309 311 273 237 228 200 320 244 273 289 304 333 328 306 312 201 194 227 228 236 234 42 136 190 215 238 7 0 3 358 359 351 329 0 13 24 28 31 33 33 33 30 28 28
310 318 327 326 311 290 296 311 319 315 302 254 244 296 249 219 254 318 315 322 320 297 312 314 239 205 196 216 204 252 50 225 271 28 258 32 31 324 352 355 350 355 349 329 348 4 15 19 20 22 26 30 30 31
312 321 324 350 339 312 303 302 305 283 255 261 249 253 236 314 294 290 298 293 293 287 308 278 252 233 195 232 217 135 206 1 220 266 350 21 348 261 316 343 350 353 355 350 351 352 3 12 14 18 21 23 30 33
323 326 296 316 318 310 302 310 277 230 252 243 239 258 275 278 325 322 283 287 313 306 309 30 280 250 257 267 195 55 27 264 347 336 346 348 29 46 336 324 321 352 353 358 360 1 4 17 19 19 22 23 25 26
339 315 307 309 302 291 296 276 239 234 249 236 241 275 293 297 307 329 327 326 308 293 10 61 278 307 25 357 52 275 255 318 324 339 346 31 20 7 355 336 296 313 356 2 6 14 16 17 22 26 27 23 25 27
330 320 314 317 262 279 283 202 232 247 250 253 269 304 315 302 309 330 340 333 341 334 342 65 28 37 31 20 233 243 295 302 350 4 15 351 324 322 324 332 308 229 290 10 17 2 1 9 14 26 27 21 23 25
321 311 308 283 234 267 237 232 216 266 256 287 289 306 312 321 326 344 356 354 10 55 102 82 69 160 219 233 266 288 296 338 344 63 338 329 330 321 315 327 298 226 221 205 344 9 20 30 18 10 11 13 18 25
311 308 80 268 250 217 249 222 225 265 276 334 302 322 327 336 344 17 30 3 352 294 88 106 212 214 260 317 279 297 294 270 344 289 274 29 345 333 319 311 303 223 208 198 210 342 82 111 45 22 25 24 16 25
327 333 328 250 239 220 258 252 245 264 297 286 314 323 330 353 29 30 16 6 41 12 31 306 302 319 311 309 311 293 259 216 309 315 351 347 349 347 344 324 278 240 226 199 126 83 57 60 38 45 39 29 31 39
314 303 286 244 223 241 257 239 262 281 268 295 297 317 325 358 16 16 337 21 38 18 23 12 8 349 347 349 339 319 221 213 287 255 10 8 37 55 17 31 75 116 149 150 266 293 129 75 48 43 52 56 57 52
318 272 233 219 231 233 246 250 256 245 268 301 301 280 88 23 11 342 84 31 23 1 352 343 357 342 344 346 2 11 206 253 230 184 156 111 30 167 344 20 6 348 354 22 307 211 162 191 162 93 61 64 58 51
304 216 222 228 218 252 233 231 233 256 269 279 301 330 31 6 343 320 56 23 18 343 324 342 353 353 1 356 1 357 328 210 177 153 249 307 164 135 20 55 57 34 19 329 302 209 148 124 123 135 95 68 54 35
261 208 215 233 224 235 228 221 226 241 279 318 290 284 57 314 304 45 23 26 7 6 355 350 320 353 351 1 8 358 350 275 222 314 173 184 177 134 98 302 324 54 24 13 51 168 169 159 155 173 112 60 42 34
240 201 197 216 189 232 227 266 232 283 296 265 222 73 262 293 279 45 55 12 349 356 352 351 349 350 8 11 355 353 353 321 307 342 91 125 129 68 263 127 100 53 25 12 13 82 91 78 83 121 130 96 72 60
259 208 210 225 250 249 254 252 269 257 248 234 181 199 238 297 13 75 66 18 355 352 12 25 31 38 23 8 360 359 6 17 69 107 121 88 81 68 80 100 96 71 49 57 97 102 109 119 132 108 87 94 73 68
248 247 229 185 216 233 265 257 237 228 224 190 198 216 245 25 67 75 40 38 68 77 83 84 76 58 40 35 41 50 75 97 99 100 102 90 73 91 90 95 81 76 70 98 92 98 99 103 95 88 91 92 62 55
235 221 210 229 230 230 234 237 250 220 208 202 235 180 142 110 129 142 139 133 116 97 90 78 64 50 43 43 53 65 68 38 321 221 109 106 94 76 71 61 105 96 81 69 108 105 91 88 86 85 76 77 80 62
229 199 226 230 229 235 229 214 256 230 217 227 177 120 124 138 156 152 144 137 131 123 106 87 70 44 41 46 52 54 48 47 68 75 93 110 103 100 97 114 96 93 92 96 106 100 89 79 77 79 78 72 65 56
207 196 234 244 258 273 246 233 241 228 211 205 200 211 163 155 163 155 160 156 144 133 117 98 80 59 49 44 39 50 65 64 66 96 116 120 124 113 108 113 112 104 108 100 107 107 95 75 88 89 74 60 41 38
208 219 237 248 250 267 194 223 230 210 247 266 219 184 163 164 172 192 182 170 153 150 145 122 111 94 76 70 74 97 109 102 92 89 95 115 125 121 116 115 116 115 116 103 99 100 100 89 87 79 64 44 34 25
237 243 247 264 218 202 185 180 207 128 125 337 267 230 211 200 182 194 182 170 168 166 149 139 126 114 103 102 107 109 107 109 118 124 129 135 136 125 115 119 121 120 119 118 111 99 97 90 84 74 49 32 14 0